{"data":{"norad_id":69805,"epoch":"2026-09-19T20:54:22.398048Z","epoch_age_seconds":76011,"freshness":"FRESH","line1":"1 69805U 26153F   26262.87109257 -.01770268  00000+0 -12233+1 0  9995","line2":"2 69805  88.9973 351.4934 0010734 332.6244  27.4370 14.03344104 10987","mean_motion":14.03344104,"eccentricity":0.0010734,"inclination_deg":88.9973,"raan_deg":351.4934,"arg_perigee_deg":332.6244,"mean_anomaly_deg":27.437,"bstar":-1.2233,"rev_number":1098,"period_min":102.61203904983,"perigee_km":874.44480938439,"apogee_km":890.03138264051,"semimajor_km":7260.3750960125,"source":"CELESTRAK","updated_at":"2026-09-20T09:00:25.120096Z"}}